Location: Houston
(29.7630°N, 95.3630°W)
Time: 21:42:52
(UTC-06:00)

Daily predictions for brighter satellites

Satellite Brightness Start Highest point End
(mag) Time Altitude Azimuth Time Altitude Azimuth Time Altitude Azimuth
Cosmos 372 Rocket 4.4 18:10:58 10° N 18:15:42 38° ENE 18:20:26 10° SE
Cosmos 540 Rocket 4.1 18:11:14 10° SSW 18:16:19 61° WNW 18:21:26 10° N
Cosmos 1844 3.8 18:11:41 10° NNW 18:17:29 88° WSW 18:23:17 10° SSE
Atlas Centaur 2 3.8 18:14:03 10° W 18:19:01 30° SSW 18:23:04 10° SSE
Cosmos 2237 Rocket 3.1 18:17:09 10° SW 18:22:33 50° WNW 18:28:02 10° N
Sich 1 4.1 18:18:55 10° SE 18:22:35 26° E 18:26:16 10° NE
Cosmos 1340 Rocket 2.7 18:19:26 10° S 18:23:20 66° E 18:27:14 10° NNE
SL-14 R/B 3.8 18:20:33 10° SSW 18:24:24 63° W 18:28:20 10° N
USA 215 4.5 18:22:19 10° E 18:26:58 21° NNE 18:31:37 10° NNW
Cosmos 1484 Rocket 2.7 18:23:43 10° SSE 18:27:36 76° ENE 18:31:34 10° N
Cosmos 2058 2.9 18:23:43 10° S 18:27:49 85° W 18:31:56 10° N
Cosmos 1461 3.0 18:23:50 10° SSW 18:28:06 82° WNW 18:32:14 10° NNE
Cosmos 1300 2.7 18:24:31 10° N 18:28:21 88° E 18:32:10 10° S
SL-16 R/B 2.2 18:23:51 10° S 18:29:27 72° ESE 18:35:05 10° NNE
Cosmos 1633 Rocket 4.0 18:26:20 10° SSE 18:30:03 27° E 18:33:47 10° NNE
Cosmos 304 Rocket 3.9 18:32:15 10° SSW 18:37:03 80° WNW 18:41:53 10° NNE
Hubble Space Telescope 3.4 18:44:16 10° WSW 18:46:57 17° SSW 18:49:38 10° SSE
Cosmos 2297 4.1 18:41:52 10° N 18:47:13 40° ENE 18:52:33 10° SE
OTV 4 0.3 18:46:20 10° WNW 18:49:18 75° NNE 18:50:55 23° ESE
Cosmos 1356 Rocket 3.2 18:45:32 10° S 18:49:30 70° E 18:53:28 10° NNE
Meteor 1-28 Rocket 3.9 18:49:10 10° N 18:52:48 54° WNW 18:56:26 10° SSW
Coronas F rocket 1.9 18:53:10 10° SSE 18:54:53 30° SE 18:54:53 30° SE
Aureole 1 Rocket 3.6 18:52:22 10° S 18:57:00 58° E 19:03:11 10° NNE
COSMO-SKYMED 1 4.3 18:55:34 10° N 18:59:27 33° WNW 19:03:18 10° SW
CZ-3A R/B 3.9 18:55:46 10° NNW 18:59:42 25° NE 19:01:31 22° ENE
Transit 2A Rocket 4.4 18:55:42 10° NNW 19:00:00 80° ENE 19:04:23 10° SSE
Cosmos 1707 Rocket 3.5 18:55:48 10° N 19:00:05 59° E 19:04:21 10° SSE
Spot 2 Rocket 4.3 18:56:40 10° SE 19:00:51 27° ENE 19:05:01 10° NNE
Resurs 01 Rocket 3.2 18:58:06 10° SE 19:03:50 18° NNE 19:05:24 10° NNE
Meteor 2-10 4.4 18:56:41 10° NNW 19:01:48 68° W 19:07:04 10° S
Cosmos 1184 Rocket 2.7 19:00:36 10° S 19:03:57 84° E 19:06:41 15° N
Cosmos 1666 Rocket 3.5 18:59:58 10° S 19:04:16 84° W 19:08:38 10° N
USA 229 DEB 3.6 18:59:13 10° SSW 19:06:03 81° ESE 19:12:13 14° NNE
FENGYUN 3A 4.2 19:01:21 10° SE 19:06:07 34° ENE 19:10:54 10° N
USA 229 3.6 18:59:19 10° SSW 19:06:09 80° ESE 19:12:16 14° NNE
Tiangong 1 1.1 19:05:36 10° SW 19:08:30 52° SE 19:08:40 51° SE
Lacrosse 5 rocket 1.2 19:04:55 10° NNW 19:08:46 60° NE 19:10:49 27° SE
METEOR-M 4.0 19:05:47 10° SSE 19:11:07 80° ENE 19:16:29 10° N
Cosmos 1933 Rocket 3.9 19:11:43 10° SSE 19:15:51 41° E 19:16:13 40° ENE
Iridium 4 Rocket 3.1 19:11:29 10° SSE 19:16:07 61° E 19:19:41 15° NNE
Timation 1 Rocket 4.3 19:13:44 10° NNW 19:19:47 88° ENE 19:25:47 10° SSE
ALOS 2.4 19:17:14 10° SSE 19:21:43 49° ENE 19:26:13 10° N
Cosmos 923 Rocket 3.9 19:16:33 10° S 19:21:44 73° ESE 19:24:48 25° NNE
BREEZE-M DEB (TANK) 4.3 19:22:00 10° WNW 19:22:37 14° NW 19:22:37 14° NW
FengYun 1-2 T 4.2 19:19:31 10° SSE 19:24:58 57° ENE 19:30:22 10° N
Cosmos 1626 4.0 19:22:44 10° SW 19:26:04 30° W 19:29:25 10° NNW
NOAA 12 4.5 19:21:51 10° S 19:27:01 64° WSW 19:32:14 10° NNW
Cosmos 1680 Rocket 3.4 19:23:53 10° S 19:29:00 63° ESE 19:30:32 43° NE
SJ-6B 3.4 19:26:54 10° S 19:30:53 61° W 19:34:56 10° NNW
Cosmos 292 Rocket 3.6 19:28:38 10° SSW 19:33:22 85° ESE 19:34:49 45° NNE
Cosmos 1603 3.6 19:28:22 10° SSW 19:33:59 89° WNW 19:36:59 29° NNE
OAO 1 4.4 19:29:36 10° WSW 19:35:04 81° SSE 19:36:11 57° E
Cosmos 1470 Rocket 3.4 19:32:47 10° S 19:37:09 88° E 19:37:52 62° N
Intelsat 5-1 Rocket 3.3 19:34:25 10° WSW 19:37:13 31° S 19:38:07 28° SSE
CCE 1 Rocket 4.4 19:33:48 10° WSW 19:38:11 55° SSE 19:39:28 46° ESE
Cosmos 2242 Rocket 3.5 19:37:03 10° N 19:41:29 89° W 19:45:57 10° S
Cosmos 1455 3.3 19:40:51 10° NNW 19:44:28 43° W 19:48:06 10° SSW
Cosmos 2026 Rocket 3.8 19:39:26 10° S 19:45:38 68° E 19:47:46 42° NNE
Helios 1B rocket 3.8 19:56:26 33° SSW 19:56:26 33° SSW 19:58:45 10° SSW
NOSS 3-1 (C) 3.2 19:53:21 10° SSW 19:58:31 70° SSE 19:58:31 70° SSE
Cosmos 2112 Rocket 4.2 19:59:42 10° SSW 20:04:50 66° WNW 20:04:55 65° WNW
USA 215 3.1 20:08:58 79° E 20:09:16 82° NE 20:15:50 10° NW
Meteor 2-20 4.5 20:07:56 10° S 20:14:01 75° W 20:14:28 71° NW
Milstar 3 4.2 20:30:57 10° W 20:36:51 31° SSW 20:38:30 29° S
Resurs 01 Rocket 4.3 20:34:46 10° SW 20:41:23 10° NW 20:41:27 10° NW
